| time (UTC) | temp F | wind direction | speed MPH | gust MPH | rain 1hr in | rain 24hr in | rain mn in | humidity % | barometer mb |
| 20260902210840 | 69 | 227 | 3.0 | 15.0 | 0.00 | 0.00 | 0.00 | 39 | 1014.4 |
| 20260902210335 | 69 | 199 | 4.0 | 12.0 | 0.00 | 0.00 | 0.00 | 39 | 1014.3 |
| 20260902205833 | 70 | 210 | 12.0 | 15.0 | 0.00 | 0.00 | 0.00 | 38 | 1014.4 |
| 20260902205328 | 69 | 198 | 7.0 | 15.0 | 0.00 | 0.00 | 0.00 | 40 | 1014.7 |
| 20260902204824 | 70 | 218 | 10.0 | 20.0 | 0.00 | 0.00 | 0.00 | 38 | 1014.7 |
| 20260902204318 | 70 | 206 | 16.0 | 20.0 | 0.00 | 0.00 | 0.00 | 37 | 1014.5 |
| 20260902203814 | 72 | 178 | 6.0 | 16.0 | 0.00 | 0.00 | 0.00 | 38 | 1014.5 |
| 20260902203309 | 71 | 184 | 11.0 | 17.0 | 0.00 | 0.00 | 0.00 | 37 | 1014.3 |
| 20260902202808 | 72 | 203 | 15.0 | 20.0 | 0.00 | 0.00 | 0.00 | 38 | 1014.3 |
| 20260902202306 | 71 | 220 | 9.0 | 20.0 | 0.00 | 0.00 | 0.00 | 40 | 1014.2 |
| 20260902201801 | 71 | 220 | 3.0 | 18.0 | 0.00 | 0.00 | 0.00 | 40 | 1014.3 |
| 20260902201300 | 70 | 193 | 13.0 | 28.0 | 0.00 | 0.00 | 0.00 | 40 | 1014.2 |
| 20260902200755 | 70 | 175 | 6.0 | 24.0 | 0.00 | 0.00 | 0.00 | 38 | 1014.3 |
| 20260902200251 | 71 | 186 | 7.0 | 19.0 | 0.00 | 0.00 | 0.00 | 41 | 1014.1 |
| 20260902195746 | 69 | 181 | 7.0 | 20.0 | 0.00 | 0.00 | 0.00 | 43 | 1014.3 |
| 20260902195245 | 67 | 186 | 5.0 | 17.0 | 0.00 | 0.00 | 0.00 | 41 | 1014.3 |
| 20260902194740 | 68 | 215 | 4.0 | 22.0 | 0.00 | 0.00 | 0.00 | 43 | 1014.2 |
| 20260902194235 | 69 | 208 | 14.0 | 17.0 | 0.00 | 0.00 | 0.00 | 43 | 1014.3 |
| 20260902193731 | 69 | 197 | 6.0 | 23.0 | 0.00 | 0.00 | 0.00 | 42 | 1014.2 |
| 20260902193226 | 70 | 244 | 18.0 | 22.0 | 0.00 | 0.00 | 0.00 | 42 | 1014.2 |
| 20260902192725 | 67 | 215 | 6.0 | 12.0 | 0.00 | 0.00 | 0.00 | 47 | 1014.4 |
| 20260902192224 | 67 | 156 | 7.0 | 16.0 | 0.00 | 0.00 | 0.00 | 46 | 1014.4 |
| 20260902191719 | 67 | 202 | 5.0 | 21.0 | 0.00 | 0.00 | 0.00 | 46 | 1014.4 |
| 20260902191213 | 66 | 215 | 9.0 | 17.0 | 0.00 | 0.00 | 0.00 | 45 | 1014.5 |
| 20260902190708 | 67 | 197 | 4.0 | 12.0 | 0.00 | 0.00 | 0.00 | 45 | 1014.7 |
| 20260902190203 | 68 | 206 | 11.0 | 16.0 | 0.00 | 0.00 | 0.00 | 44 | 1014.7 |
| 20260902185659 | 68 | 210 | 9.0 | 18.0 | 0.00 | 0.00 | 0.00 | 46 | 1014.8 |
| 20260902185155 | 66 | 159 | 10.0 | 17.0 | 0.00 | 0.00 | 0.00 | 47 | 1014.8 |
| 20260902184649 | 67 | 214 | 19.0 | 23.0 | 0.00 | 0.00 | 0.00 | 46 | 1014.9 |
| 20260902184144 | 66 | 204 | 17.0 | 22.0 | 0.00 | 0.00 | 0.00 | 47 | 1014.9 |
| 20260902183640 | 66 | 180 | 2.0 | 21.0 | 0.00 | 0.00 | 0.00 | 46 | 1014.7 |
| 20260902183137 | 67 | 187 | 5.0 | 15.0 | 0.00 | 0.00 | 0.00 | 45 | 1014.5 |
| 20260902182633 | 67 | 223 | 5.0 | 22.0 | 0.00 | 0.00 | 0.00 | 43 | 1014.5 |
| 20260902182130 | 69 | 228 | 16.0 | 17.0 | 0.00 | 0.00 | 0.00 | 43 | 1014.4 |
| 20260902181625 | 69 | 209 | 7.0 | 15.0 | 0.00 | 0.00 | 0.00 | 43 | 1014.5 |
| 20260902181124 | 71 | 163 | 15.0 | 17.0 | 0.00 | 0.00 | 0.00 | 42 | 1014.7 |
| 20260902180619 | 71 | 213 | 13.0 | 15.0 | 0.00 | 0.00 | 0.00 | 44 | 1014.5 |
| 20260902180116 | 70 | 198 | 5.0 | 16.0 | 0.00 | 0.00 | 0.00 | 42 | 1014.9 |
| 20260902175615 | 69 | 206 | 13.0 | 22.0 | 0.00 | 0.00 | 0.00 | 42 | 1014.9 |
| 20260902175110 | 69 | 182 | 7.0 | 20.0 | 0.00 | 0.00 | 0.00 | 45 | 1014.9 |
| 20260902174606 | 68 | 220 | 16.0 | 21.0 | 0.00 | 0.00 | 0.00 | 47 | 1014.8 |
| 20260902174101 | 69 | 230 | 13.0 | 16.0 | 0.00 | 0.00 | 0.00 | 48 | 1014.8 |
| 20260902173556 | 68 | 222 | 8.0 | 17.0 | 0.00 | 0.00 | 0.00 | 48 | 1014.8 |
| 20260902173051 | 68 | 211 | 9.0 | 13.0 | 0.00 | 0.00 | 0.00 | 49 | 1014.8 |
| 20260902172545 | 66 | 162 | 10.0 | 16.0 | 0.00 | 0.00 | 0.00 | 52 | 1014.8 |
| 20260902172040 | 66 | 151 | 9.0 | 16.0 | 0.00 | 0.00 | 0.00 | 52 | 1015.1 |
| 20260902171536 | 67 | 184 | 8.0 | 23.0 | 0.00 | 0.00 | 0.00 | 45 | 1014.9 |
| 20260902171031 | 68 | 197 | 8.0 | 19.0 | 0.00 | 0.00 | 0.00 | 47 | 1014.9 |
| 20260902170526 | 69 | 174 | 9.0 | 16.0 | 0.00 | 0.00 | 0.00 | 46 | 1014.9 |
| 20260902170022 | 69 | 231 | 3.0 | 15.0 | 0.00 | 0.00 | 0.00 | 46 | 1014.8 |
| 20260902165521 | 67 | 206 | 8.0 | 29.0 | 0.00 | 0.00 | 0.00 | 45 | 1014.9 |
| 20260902165016 | 68 | 245 | 10.0 | 19.0 | 0.00 | 0.00 | 0.00 | 48 | 1015.0 |
| 20260902164511 | 66 | 227 | 16.0 | 17.0 | 0.00 | 0.00 | 0.00 | 49 | 1014.9 |
| 20260902164010 | 66 | 239 | 6.0 | 15.0 | 0.00 | 0.00 | 0.00 | 51 | 1014.9 |
| 20260902163506 | 66 | 198 | 8.0 | 21.0 | 0.00 | 0.00 | 0.00 | 47 | 1014.9 |
| 20260902163004 | 68 | 206 | 7.0 | 10.0 | 0.00 | 0.00 | 0.00 | 48 | 1014.9 |
| 20260902162458 | 68 | 200 | 7.0 | 18.0 | 0.00 | 0.00 | 0.00 | 48 | 1014.9 |
| 20260902161953 | 69 | 164 | 8.0 | 21.0 | 0.00 | 0.00 | 0.00 | 46 | 1014.7 |
| 20260902161448 | 69 | 196 | 7.0 | 20.0 | 0.00 | 0.00 | 0.00 | 47 | 1014.7 |
| 20260902160944 | 69 | 169 | 8.0 | 20.0 | 0.00 | 0.00 | 0.00 | 46 | 1014.5 |
| 20260902160439 | 69 | 213 | 12.0 | 18.0 | 0.00 | 0.00 | 0.00 | 47 | 1014.5 |
| 20260902155937 | 69 | 157 | 11.0 | 23.0 | 0.00 | 0.00 | 0.00 | 46 | 1014.7 |
| 20260902155433 | 68 | 187 | 11.0 | 22.0 | 0.00 | 0.00 | 0.00 | 45 | 1014.3 |
| 20260902154926 | 68 | 159 | 10.0 | 19.0 | 0.00 | 0.00 | 0.00 | 45 | 1014.4 |
| 20260902154422 | 68 | 158 | 11.0 | 20.0 | 0.00 | 0.00 | 0.00 | 45 | 1014.3 |
| 20260902153922 | 68 | 192 | 11.0 | 21.0 | 0.00 | 0.00 | 0.00 | 47 | 1014.5 |
| 20260902153420 | 68 | 180 | 6.0 | 16.0 | 0.00 | 0.00 | 0.00 | 48 | 1014.4 |
| 20260902152916 | 67 | 182 | 9.0 | 19.0 | 0.00 | 0.00 | 0.00 | 47 | 1014.4 |
| 20260902152412 | 68 | 147 | 13.0 | 20.0 | 0.00 | 0.00 | 0.00 | 47 | 1014.5 |
| 20260902151907 | 67 | 190 | 9.0 | 23.0 | 0.00 | 0.00 | 0.00 | 46 | 1014.3 |
| 20260902151402 | 67 | 192 | 6.0 | 18.0 | 0.00 | 0.00 | 0.00 | 48 | 1014.4 |
| 20260902150856 | 65 | 200 | 11.0 | 20.0 | 0.00 | 0.00 | 0.00 | 49 | 1014.5 |
| 20260902150353 | 66 | 164 | 9.0 | 17.0 | 0.00 | 0.00 | 0.00 | 49 | 1014.7 |
| 20260902145846 | 66 | 166 | 7.0 | 13.0 | 0.00 | 0.00 | 0.00 | 51 | 1014.8 |
| 20260902145341 | 66 | 179 | 5.0 | 15.0 | 0.00 | 0.00 | 0.00 | 50 | 1014.7 |
| 20260902144836 | 65 | 157 | 10.0 | 18.0 | 0.00 | 0.00 | 0.00 | 52 | 1014.5 |
| 20260902144332 | 64 | 147 | 10.0 | 16.0 | 0.00 | 0.00 | 0.00 | 52 | 1014.3 |
| 20260902143828 | 65 | 143 | 11.0 | 14.0 | 0.00 | 0.00 | 0.00 | 51 | 1014.4 |
| 20260902143327 | 65 | 129 | 7.0 | 17.0 | 0.00 | 0.00 | 0.00 | 52 | 1014.4 |
| 20260902142823 | 64 | 154 | 3.0 | 15.0 | 0.00 | 0.00 | 0.00 | 52 | 1014.3 |
| 20260902142319 | 64 | 163 | 6.0 | 15.0 | 0.00 | 0.00 | 0.00 | 52 | 1014.3 |
| 20260902141814 | 64 | 164 | 7.0 | 14.0 | 0.00 | 0.00 | 0.00 | 53 | 1014.3 |
| 20260902141310 | 65 | 169 | 8.0 | 16.0 | 0.00 | 0.00 | 0.00 | 52 | 1014.4 |
| 20260902140804 | 64 | 149 | 8.0 | 13.0 | 0.00 | 0.00 | 0.00 | 51 | 1014.2 |
| 20260902140300 | 63 | 177 | 3.0 | 21.0 | 0.00 | 0.00 | 0.00 | 54 | 1014.2 |
| 20260902135758 | 63 | 135 | 4.0 | 13.0 | 0.00 | 0.00 | 0.00 | 55 | 1014.3 |
| 20260902135255 | 62 | 157 | 9.0 | 12.0 | 0.00 | 0.00 | 0.00 | 56 | 1014.1 |
| 20260902134754 | 62 | 135 | 5.0 | 14.0 | 0.00 | 0.00 | 0.00 | 56 | 1014.2 |
| 20260902134250 | 63 | 153 | 9.0 | 11.0 | 0.00 | 0.00 | 0.00 | 55 | 1014.2 |
| 20260902133745 | 62 | 168 | 4.0 | 10.0 | 0.00 | 0.00 | 0.00 | 55 | 1014.2 |
| 20260902133244 | 62 | 153 | 6.0 | 11.0 | 0.00 | 0.00 | 0.00 | 56 | 1014.2 |
| 20260902132739 | 62 | 206 | 2.0 | 7.0 | 0.00 | 0.00 | 0.00 | 56 | 1014.1 |
| 20260902132235 | 62 | 196 | 3.0 | 8.0 | 0.00 | 0.00 | 0.00 | 56 | 1014.2 |
| 20260902131730 | 63 | 144 | 9.0 | 15.0 | 0.00 | 0.00 | 0.00 | 54 | 1014.1 |
| 20260902131226 | 62 | 206 | 3.0 | 11.0 | 0.00 | 0.00 | 0.00 | 57 | 1014.2 |
| 20260902130721 | 62 | 133 | 5.0 | 11.0 | 0.00 | 0.00 | 0.00 | 56 | 1014.1 |
| 20260902130216 | 62 | 146 | 6.0 | 12.0 | 0.00 | 0.00 | 0.00 | 57 | 1014.1 |
| 20260902125711 | 62 | 155 | 4.0 | 10.0 | 0.00 | 0.00 | 0.00 | 57 | 1014.1 |
| 20260902125208 | 62 | 140 | 2.0 | 17.0 | 0.00 | 0.00 | 0.00 | 55 | 1014.2 |
| 20260902124703 | 62 | 149 | 7.0 | 12.0 | 0.00 | 0.00 | 0.00 | 55 | 1013.8 |
| 20260902124158 | 62 | 151 | 10.0 | 14.0 | 0.00 | 0.00 | 0.00 | 57 | 1013.9 |
| 20260902123653 | 62 | 141 | 7.0 | 11.0 | 0.00 | 0.00 | 0.00 | 57 | 1013.9 |
| 20260902123148 | 63 | 151 | 6.0 | 17.0 | 0.00 | 0.00 | 0.00 | 55 | 1013.9 |
| 20260902122642 | 63 | 162 | 8.0 | 22.0 | 0.00 | 0.00 | 0.00 | 55 | 1013.9 |
| 20260902122138 | 61 | 129 | 8.0 | 12.0 | 0.00 | 0.00 | 0.00 | 58 | 1014.1 |
| 20260902121633 | 62 | 134 | 13.0 | 14.0 | 0.00 | 0.00 | 0.00 | 57 | 1014.2 |
| 20260902121133 | 62 | 199 | 5.0 | 13.0 | 0.00 | 0.00 | 0.00 | 57 | 1013.9 |
| 20260902120624 | 62 | 198 | 5.0 | 18.0 | 0.00 | 0.00 | 0.00 | 58 | 1014.1 |
| 20260902120120 | 63 | 137 | 8.0 | 16.0 | 0.00 | 0.00 | 0.00 | 57 | 1014.1 |
| 20260902115615 | 62 | 132 | 5.0 | 16.0 | 0.00 | 0.00 | 0.00 | 57 | 1013.9 |
| 20260902115111 | 63 | 147 | 8.0 | 17.0 | 0.00 | 0.00 | 0.00 | 57 | 1013.9 |
| 20260902114607 | 62 | 155 | 7.0 | 11.0 | 0.00 | 0.00 | 0.00 | 59 | 1014.1 |
| 20260902114106 | 63 | 145 | 15.0 | 18.0 | 0.00 | 0.00 | 0.00 | 58 | 1013.9 |
| 20260902113602 | 62 | 157 | 6.0 | 17.0 | 0.00 | 0.00 | 0.00 | 58 | 1014.1 |
| 20260902113057 | 62 | 135 | 8.0 | 12.0 | 0.00 | 0.00 | 0.00 | 58 | 1014.1 |
| 20260902112552 | 63 | 145 | 6.0 | 12.0 | 0.00 | 0.00 | 0.00 | 58 | 1014.1 |
| 20260902112049 | 63 | 180 | 4.0 | 15.0 | 0.00 | 0.00 | 0.00 | 57 | 1014.2 |
| 20260902111544 | 63 | 180 | 6.0 | 11.0 | 0.00 | 0.00 | 0.00 | 58 | 1014.3 |
| 20260902111039 | 62 | 139 | 4.0 | 8.0 | 0.00 | 0.00 | 0.00 | 58 | 1014.3 |
| 20260902110531 | 62 | 154 | 4.0 | 11.0 | 0.00 | 0.00 | 0.00 | 59 | 1014.2 |
| 20260902110026 | 62 | 146 | 7.0 | 11.0 | 0.00 | 0.00 | 0.00 | 59 | 1014.3 |
| 20260902105525 | 62 | 147 | 9.0 | 13.0 | 0.00 | 0.00 | 0.00 | 60 | 1014.2 |
| 20260902105020 | 62 | 140 | 9.0 | 11.0 | 0.00 | 0.00 | 0.00 | 61 | 1014.4 |
| 20260902104516 | 61 | 146 | 4.0 | 12.0 | 0.00 | 0.00 | 0.00 | 62 | 1014.3 |
| 20260902104010 | 60 | 125 | 9.0 | 9.0 | 0.00 | 0.00 | 0.00 | 64 | 1014.2 |
| 20260902103505 | 58 | 110 | 6.0 | 9.0 | 0.00 | 0.00 | 0.00 | 67 | 1014.2 |
| 20260902103000 | 55 | 28 | 2.0 | 2.0 | 0.00 | 0.00 | 0.00 | 72 | 1014.3 |
| 20260902102456 | 55 | 90 | 3.0 | 4.0 | 0.00 | 0.00 | 0.00 | 71 | 1014.4 |
| 20260902101953 | 55 | 114 | 0.0 | 5.0 | 0.00 | 0.00 | 0.00 | 73 | 1014.3 |
| 20260902101448 | 55 | 29 | 2.0 | 3.0 | 0.00 | 0.00 | 0.00 | 72 | 1014.5 |
| 20260902100947 | 55 | 5 | 3.0 | 3.0 | 0.00 | 0.00 | 0.00 | 72 | 1014.3 |
| 20260902100442 | 55 | 95 | 2.0 | 3.0 | 0.00 | 0.00 | 0.00 | 71 | 1014.4 |
| 20260902095941 | 55 | 246 | 0.0 | 2.0 | 0.00 | 0.00 | 0.00 | 72 | 1014.7 |
| 20260902095437 | 55 | 45 | 3.0 | 3.0 | 0.00 | 0.00 | 0.00 | 71 | 1014.5 |
| 20260902094935 | 56 | 23 | 3.0 | 3.0 | 0.00 | 0.00 | 0.00 | 71 | 1014.4 |
| 20260902094432 | 56 | 74 | 2.0 | 5.0 | 0.00 | 0.00 | 0.00 | 72 | 1014.8 |
| 20260902093926 | 58 | 81 | 4.0 | 4.0 | 0.00 | 0.00 | 0.00 | 67 | 1014.7 |
| 20260902093422 | 58 | 76 | 3.0 | 4.0 | 0.00 | 0.00 | 0.00 | 67 | 1014.7 |
| 20260902092920 | 58 | 140 | 3.0 | 4.0 | 0.00 | 0.00 | 0.00 | 67 | 1014.7 |
| 20260902092410 | 58 | 343 | 2.0 | 3.0 | 0.00 | 0.00 | 0.00 | 70 | 1014.7 |
| 20260902091905 | 57 | 19 | 10.0 | 10.0 | 0.00 | 0.00 | 0.00 | 75 | 1014.8 |
| 20260902091400 | 55 | 45 | 2.0 | 7.0 | 0.00 | 0.00 | 0.00 | 81 | 1014.7 |
| 20260902090857 | 54 | 337 | 2.0 | 5.0 | 0.00 | 0.00 | 0.00 | 83 | 1014.7 |
| 20260902090357 | 55 | 20 | 6.0 | 6.0 | 0.00 | 0.00 | 0.00 | 81 | 1014.8 |
| 20260902085855 | 56 | 93 | 3.0 | 7.0 | 0.00 | 0.00 | 0.00 | 77 | 1015.0 |
| 20260902085350 | 57 | 42 | 3.0 | 7.0 | 0.00 | 0.00 | 0.00 | 75 | 1015.1 |
| 20260902084845 | 58 | 100 | 5.0 | 5.0 | 0.00 | 0.00 | 0.00 | 72 | 1015.3 |
| 20260902084337 | 59 | 149 | 3.0 | 6.0 | 0.00 | 0.00 | 0.00 | 70 | 1015.0 |
| 20260902083832 | 59 | 183 | 2.0 | 5.0 | 0.00 | 0.00 | 0.00 | 71 | 1015.1 |
| 20260902083331 | 59 | 210 | 8.0 | 8.0 | 0.00 | 0.00 | 0.00 | 69 | 1015.6 |
| 20260902082826 | 58 | 38 | 4.0 | 12.0 | 0.00 | 0.00 | 0.00 | 72 | 1015.6 |
| 20260902082317 | 58 | 112 | 3.0 | 6.0 | 0.00 | 0.00 | 0.00 | 73 | 1015.3 |
| 20260902081813 | 58 | 81 | 2.0 | 9.0 | 0.00 | 0.00 | 0.00 | 70 | 1015.0 |
| 20260902081309 | 57 | 105 | 2.0 | 5.0 | 0.00 | 0.00 | 0.00 | 70 | 1014.9 |
| 20260902080803 | 57 | 11 | 0.0 | 3.0 | 0.00 | 0.00 | 0.00 | 71 | 1014.9 |
| 20260902080301 | 57 | 29 | 4.0 | 5.0 | 0.00 | 0.00 | 0.00 | 72 | 1015.0 |
| 20260902075759 | 59 | 23 | 1.0 | 4.0 | 0.00 | 0.00 | 0.00 | 71 | 1015.1 |
| 20260902075255 | 62 | 116 | 3.0 | 6.0 | 0.00 | 0.00 | 0.00 | 61 | 1015.3 |
| 20260902074750 | 60 | 119 | 3.0 | 6.0 | 0.00 | 0.00 | 0.00 | 65 | 1015.6 |
| 20260902074246 | 59 | 233 | 0.0 | 4.0 | 0.00 | 0.00 | 0.00 | 69 | 1015.6 |
| 20260902073741 | 60 | 207 | 4.0 | 11.0 | 0.00 | 0.00 | 0.00 | 66 | 1015.9 |
| 20260902073236 | 61 | 172 | 6.0 | 24.0 | 0.00 | 0.00 | 0.00 | 64 | 1015.7 |
| 20260902072732 | 61 | 151 | 2.0 | 5.0 | 0.00 | 0.00 | 0.00 | 63 | 1015.3 |
| 20260902072228 | 59 | 100 | 2.0 | 3.0 | 0.00 | 0.00 | 0.00 | 66 | 1015.1 |
| 20260902071724 | 59 | 29 | 3.0 | 6.0 | 0.00 | 0.00 | 0.00 | 67 | 1015.0 |
| 20260902071219 | 57 | 98 | 2.0 | 3.0 | 0.00 | 0.00 | 0.00 | 71 | 1015.0 |
| 20260902070716 | 55 | 36 | 3.0 | 3.0 | 0.00 | 0.00 | 0.00 | 74 | 1015.1 |
| 20260902070215 | 55 | 135 | 2.0 | 4.0 | 0.00 | 0.00 | 0.00 | 74 | 1015.3 |
| 20260902065714 | 55 | 86 | 2.0 | 5.0 | 0.00 | 0.00 | 0.00 | 74 | 1015.3 |
| 20260902065210 | 57 | 57 | 2.0 | 2.0 | 0.00 | 0.00 | 0.00 | 71 | 1015.3 |
| 20260902064705 | 58 | 90 | 1.0 | 4.0 | 0.00 | 0.00 | 0.00 | 68 | 1015.5 |
| 20260902064200 | 60 | 30 | 2.0 | 3.0 | 0.00 | 0.00 | 0.00 | 66 | 1015.3 |
| 20260902063655 | 62 | 105 | 1.0 | 3.0 | 0.00 | 0.00 | 0.00 | 61 | 1015.5 |
| 20260902063150 | 62 | 115 | 2.0 | 5.0 | 0.00 | 0.00 | 0.00 | 61 | 1015.6 |
| 20260902062650 | 62 | 139 | 0.0 | 4.0 | 0.00 | 0.00 | 0.00 | 61 | 1015.5 |
| 20260902062145 | 62 | 141 | 5.0 | 8.0 | 0.00 | 0.00 | 0.00 | 61 | 1015.6 |
| 20260902061644 | 62 | 109 | 1.0 | 6.0 | 0.00 | 0.00 | 0.00 | 62 | 1015.6 |
| 20260902061140 | 62 | 132 | 7.0 | 7.0 | 0.00 | 0.00 | 0.00 | 61 | 1015.7 |
| 20260902060636 | 62 | 99 | 2.0 | 8.0 | 0.00 | 0.00 | 0.00 | 61 | 1015.9 |
| 20260902060132 | 62 | 127 | 2.0 | 8.0 | 0.00 | 0.00 | 0.00 | 62 | 1015.9 |
| 20260902055628 | 62 | 144 | 5.0 | 8.0 | 0.00 | 0.42 | 0.42 | 61 | 1015.9 |
| 20260902055123 | 62 | 122 | 3.0 | 6.0 | 0.00 | 0.42 | 0.42 | 62 | 1016.0 |
| 20260902054618 | 62 | 196 | 2.0 | 6.0 | 0.00 | 0.42 | 0.42 | 61 | 1016.0 |
| 20260902054114 | 62 | 134 | 5.0 | 11.0 | 0.00 | 0.42 | 0.42 | 61 | 1016.1 |
| 20260902053609 | 62 | 172 | 2.0 | 9.0 | 0.00 | 0.42 | 0.42 | 61 | 1016.1 |
| 20260902053109 | 62 | 151 | 0.0 | 11.0 | 0.00 | 0.42 | 0.42 | 61 | 1016.1 |
| 20260902052603 | 62 | 137 | 6.0 | 10.0 | 0.00 | 0.42 | 0.42 | 61 | 1016.1 |
| 20260902052059 | 61 | 146 | 4.0 | 5.0 | 0.00 | 0.42 | 0.42 | 63 | 1016.1 |
| 20260902051558 | 61 | 152 | 2.0 | 6.0 | 0.00 | 0.42 | 0.42 | 62 | 1016.2 |
| 20260902051057 | 61 | 145 | 1.0 | 5.0 | 0.00 | 0.42 | 0.42 | 62 | 1016.2 |
| 20260902050552 | 62 | 95 | 2.0 | 4.0 | 0.00 | 0.42 | 0.42 | 61 | 1016.1 |
| 20260902050048 | 62 | 90 | 2.0 | 6.0 | 0.00 | 0.42 | 0.42 | 61 | 1016.2 |
| 20260902045543 | 61 | 128 | 2.0 | 5.0 | 0.00 | 0.42 | 0.42 | 62 | 1016.1 |
| 20260902045039 | 61 | 140 | 3.0 | 5.0 | 0.00 | 0.42 | 0.42 | 62 | 1016.1 |
| 20260902044533 | 61 | 104 | 3.0 | 3.0 | 0.00 | 0.42 | 0.42 | 63 | 1016.2 |
| 20260902044029 | 61 | 112 | 3.0 | 5.0 | 0.00 | 0.42 | 0.42 | 63 | 1016.1 |
| 20260902043524 | 61 | 102 | 3.0 | 4.0 | 0.00 | 0.42 | 0.42 | 63 | 1016.1 |
| 20260902043019 | 62 | 125 | 2.0 | 6.0 | 0.00 | 0.42 | 0.42 | 62 | 1016.1 |
| 20260902042518 | 61 | 117 | 4.0 | 5.0 | 0.00 | 0.42 | 0.42 | 63 | 1016.2 |
| 20260902042014 | 62 | 90 | 2.0 | 4.0 | 0.00 | 0.42 | 0.42 | 62 | 1016.4 |
| 20260902041508 | 62 | 133 | 3.0 | 6.0 | 0.00 | 0.42 | 0.42 | 62 | 1016.4 |
| 20260902041002 | 62 | 133 | 3.0 | 8.0 | 0.00 | 0.42 | 0.42 | 62 | 1016.2 |
| 20260902040457 | 61 | 117 | 3.0 | 7.0 | 0.00 | 0.42 | 0.42 | 64 | 1016.5 |
| 20260902035956 | 58 | 105 | 3.0 | 5.0 | 0.00 | 0.42 | 0.42 | 72 | 1016.4 |
| 20260902035450 | 59 | 5 | 3.0 | 3.0 | 0.00 | 0.42 | 0.42 | 72 | 1016.2 |
| 20260902034945 | 62 | 109 | 2.0 | 5.0 | 0.00 | 0.42 | 0.42 | 63 | 1016.2 |
| 20260902034439 | 61 | 141 | 2.0 | 5.0 | 0.00 | 0.42 | 0.42 | 64 | 1016.4 |
| 20260902033938 | 61 | 140 | 5.0 | 5.0 | 0.00 | 0.42 | 0.42 | 66 | 1016.2 |
| 20260902033432 | 58 | 121 | 4.0 | 6.0 | 0.00 | 0.42 | 0.42 | 73 | 1016.1 |
| 20260902032931 | 56 | 22 | 2.0 | 2.0 | 0.00 | 0.42 | 0.42 | 81 | 1016.1 |
| 20260902032426 | 56 | 75 | 1.0 | 3.0 | 0.00 | 0.42 | 0.42 | 81 | 1016.0 |
| 20260902031920 | 56 | 36 | 3.0 | 4.0 | 0.00 | 0.42 | 0.42 | 82 | 1015.9 |
| 20260902031410 | 57 | 14 | 3.0 | 4.0 | 0.00 | 0.42 | 0.42 | 83 | 1015.9 |
| 20260902030907 | 57 | 30 | 2.0 | 3.0 | 0.00 | 0.42 | 0.42 | 83 | 1015.6 |
| 20260902030401 | 57 | 20 | 0.0 | 1.0 | 0.00 | 0.42 | 0.42 | 83 | 1015.6 |
| 20260902025859 | 57 | 81 | 0.0 | 2.0 | 0.00 | 0.42 | 0.42 | 83 | 1015.6 |
| 20260902025355 | 57 | 97 | 1.0 | 2.0 | 0.00 | 0.42 | 0.42 | 84 | 1015.6 |
| 20260902024850 | 57 | 90 | 2.0 | 5.0 | 0.00 | 0.42 | 0.42 | 83 | 1015.7 |
| 20260902024346 | 58 | 21 | 2.0 | 2.0 | 0.00 | 0.42 | 0.42 | 81 | 1015.6 |
| 20260902023840 | 58 | 98 | 0.0 | 2.0 | 0.00 | 0.42 | 0.42 | 82 | 1015.6 |
| 20260902023330 | 58 | 23 | 1.0 | 3.0 | 0.00 | 0.42 | 0.42 | 82 | 1015.5 |
| 20260902022828 | 59 | 3 | 2.0 | 3.0 | 0.00 | 0.42 | 0.42 | 82 | 1015.5 |
| 20260902022324 | 59 | 30 | 2.0 | 5.0 | 0.00 | 0.42 | 0.42 | 82 | 1015.7 |
| 20260902021820 | 59 | 7 | 2.0 | 4.0 | 0.00 | 0.42 | 0.42 | 81 | 1015.7 |
| 20260902021314 | 59 | 0 | 0.0 | 3.0 | 0.00 | 0.42 | 0.42 | 82 | 1015.7 |
| 20260902020805 | 58 | 90 | 0.0 | 2.0 | 0.00 | 0.42 | 0.42 | 82 | 1015.7 |
| 20260902020301 | 59 | 84 | 2.0 | 2.0 | 0.00 | 0.42 | 0.42 | 80 | 1015.7 |
| 20260902015756 | 59 | 60 | 0.0 | 1.0 | 0.00 | 0.42 | 0.42 | 80 | 1015.9 |
| 20260902015253 | 60 | 95 | 2.0 | 3.0 | 0.00 | 0.42 | 0.42 | 80 | 1015.7 |
| 20260902014748 | 60 | 87 | 3.0 | 4.0 | 0.00 | 0.42 | 0.42 | 80 | 1015.7 |
| 20260902014245 | 61 | 77 | 0.0 | 2.0 | 0.00 | 0.42 | 0.42 | 81 | 1015.9 |
| 20260902013743 | 61 | 96 | 2.0 | 2.0 | 0.00 | 0.42 | 0.42 | 80 | 1015.6 |
| 20260902013239 | 62 | 96 | 0.0 | 2.0 | 0.00 | 0.42 | 0.42 | 76 | 1015.7 |
| 20260902012733 | 63 | 90 | 0.0 | 0.0 | 0.00 | 0.42 | 0.42 | 73 | 1015.6 |
| 20260902012230 | 64 | 90 | 0.0 | 2.0 | 0.00 | 0.42 | 0.42 | 69 | 1015.7 |
| 20260902011724 | 64 | 74 | 0.0 | 1.0 | 0.00 | 0.42 | 0.42 | 68 | 1015.7 |
| 20260902011223 | 65 | 180 | 0.0 | 3.0 | 0.00 | 0.42 | 0.42 | 66 | 1015.7 |
| 20260902010718 | 65 | 196 | 2.0 | 3.0 | 0.00 | 0.42 | 0.42 | 65 | 1015.7 |
| 20260902010214 | 65 | 173 | 2.0 | 4.0 | 0.00 | 0.42 | 0.42 | 64 | 1015.7 |
| 20260902005712 | 66 | 191 | 2.0 | 5.0 | 0.00 | 0.42 | 0.42 | 63 | 1015.6 |
| 20260902005208 | 66 | 166 | 5.0 | 6.0 | 0.00 | 0.42 | 0.42 | 61 | 1015.7 |
| 20260902004707 | 66 | 215 | 4.0 | 10.0 | 0.00 | 0.42 | 0.42 | 60 | 1015.7 |
| 20260902004202 | 67 | 169 | 4.0 | 8.0 | 0.00 | 0.42 | 0.42 | 61 | 1015.9 |
| 20260902003652 | 67 | 163 | 7.0 | 7.0 | 0.00 | 0.42 | 0.42 | 61 | 1016.0 |
| 20260902003147 | 67 | 185 | 3.0 | 6.0 | 0.00 | 0.42 | 0.42 | 61 | 1016.1 |
| 20260902002643 | 68 | 215 | 3.0 | 5.0 | 0.00 | 0.42 | 0.42 | 60 | 1016.2 |
| 20260902002142 | 69 | 211 | 4.0 | 6.0 | 0.00 | 0.42 | 0.42 | 59 | 1016.0 |
| 20260902001638 | 69 | 207 | 3.0 | 7.0 | 0.00 | 0.42 | 0.42 | 57 | 1016.1 |
| 20260902001132 | 70 | 180 | 2.0 | 4.0 | 0.00 | 0.42 | 0.42 | 58 | 1016.0 |
| 20260902000628 | 70 | 230 | 3.0 | 5.0 | 0.00 | 0.42 | 0.42 | 57 | 1016.1 |
| 20260902000122 | 70 | 207 | 4.0 | 7.0 | 0.00 | 0.42 | 0.42 | 56 | 1016.0 |
| 20260901235622 | 70 | 243 | 3.0 | 5.0 | 0.00 | 0.42 | 0.42 | 56 | 1016.2 |
| 20260901235118 | 71 | 159 | 4.0 | 6.0 | 0.00 | 0.42 | 0.42 | 55 | 1016.1 |
| 20260901234616 | 69 | 175 | 2.0 | 9.0 | 0.00 | 0.42 | 0.42 | 58 | 1016.2 |
| 20260901234112 | 69 | 217 | 2.0 | 9.0 | 0.00 | 0.42 | 0.42 | 56 | 1016.1 |
| 20260901233607 | 71 | 221 | 4.0 | 5.0 | 0.00 | 0.42 | 0.42 | 56 | 1016.2 |
| 20260901233103 | 70 | 222 | 5.0 | 9.0 | 0.00 | 0.42 | 0.42 | 56 | 1016.4 |
| 20260901232558 | 69 | 229 | 4.0 | 7.0 | 0.00 | 0.42 | 0.42 | 60 | 1016.4 |
| 20260901232058 | 68 | 188 | 4.0 | 5.0 | 0.00 | 0.42 | 0.42 | 57 | 1016.4 |
| 20260901231554 | 69 | 188 | 2.0 | 7.0 | 0.00 | 0.42 | 0.42 | 59 | 1016.5 |
| 20260901231050 | 68 | 219 | 5.0 | 7.0 | 0.00 | 0.42 | 0.42 | 58 | 1016.4 |
| 20260901230546 | 69 | 209 | 2.0 | 6.0 | 0.00 | 0.42 | 0.42 | 57 | 1016.5 |
| 20260901230041 | 70 | 164 | 5.0 | 6.0 | 0.00 | 0.42 | 0.42 | 57 | 1016.5 |
| 20260901225535 | 69 | 190 | 4.0 | 10.0 | 0.00 | 0.42 | 0.42 | 56 | 1016.5 |
| 20260901225035 | 70 | 180 | 1.0 | 7.0 | 0.00 | 0.42 | 0.42 | 56 | 1016.5 |
| 20260901224531 | 70 | 225 | 5.0 | 5.0 | 0.00 | 0.42 | 0.42 | 56 | 1016.5 |
| 20260901224022 | 68 | 222 | 5.0 | 8.0 | 0.00 | 0.42 | 0.42 | 57 | 1016.8 |
| 20260901223517 | 68 | 209 | 6.0 | 8.0 | 0.00 | 0.42 | 0.42 | 59 | 1016.7 |
| 20260901223012 | 68 | 215 | 4.0 | 7.0 | 0.00 | 0.42 | 0.42 | 59 | 1016.8 |
| 20260901222508 | 69 | 212 | 6.0 | 8.0 | 0.00 | 0.42 | 0.42 | 58 | 1017.0 |
| 20260901222004 | 68 | 180 | 2.0 | 5.0 | 0.00 | 0.42 | 0.42 | 57 | 1016.8 |
| 20260901221500 | 68 | 184 | 4.0 | 9.0 | 0.00 | 0.42 | 0.42 | 57 | 1017.2 |
| 20260901220955 | 70 | 209 | 6.0 | 8.0 | 0.00 | 0.42 | 0.42 | 57 | 1017.1 |
| 20260901220454 | 70 | 250 | 2.0 | 11.0 | 0.00 | 0.42 | 0.42 | 57 | 1017.3 |
| 20260901215952 | 69 | 220 | 6.0 | 12.0 | 0.00 | 0.42 | 0.42 | 58 | 1017.3 |
| 20260901215450 | 68 | 227 | 7.0 | 9.0 | 0.00 | 0.42 | 0.42 | 60 | 1017.4 |
| 20260901214950 | 68 | 97 | 4.0 | 12.0 | 0.00 | 0.42 | 0.42 | 59 | 1017.6 |
| 20260901214448 | 70 | 180 | 2.0 | 11.0 | 0.00 | 0.42 | 0.42 | 55 | 1017.6 |
| 20260901213943 | 71 | 167 | 7.0 | 11.0 | 0.00 | 0.42 | 0.42 | 57 | 1017.6 |
| 20260901213432 | 71 | 165 | 5.0 | 8.0 | 0.00 | 0.42 | 0.42 | 56 | 1017.8 |
| 20260901212931 | 70 | 205 | 7.0 | 9.0 | 0.00 | 0.42 | 0.42 | 57 | 1017.7 |
| 20260901212427 | 68 | 209 | 6.0 | 12.0 | 0.00 | 0.42 | 0.42 | 58 | 1017.7 |
| 20260901211924 | 70 | 160 | 6.0 | 11.0 | 0.00 | 0.42 | 0.42 | 55 | 1017.9 |
| 20260901211419 | 70 | 137 | 5.0 | 12.0 | 0.00 | 0.42 | 0.42 | 57 | 1018.2 |